CPA970 VHHH-ZSAM

Flight info

Callsign CPA970
Flight time 0h 54m
Altitude 20700
Route LARIT V601 DOTMI/K0741S0630 A470 TEBON TEBON8X
Aircraft B773/H-SDE3FGHIJ3J7M3P2RWX/LB1D1

Departure

Time 2026-04-30 03:50
Airport Hong Kong International Airport (VHHH)

Arrival

Time 2026-04-30 04:44
Airport Xiamen Gaoqi International Airport (ZSAM)
Time Latitude Longitude Altitude Speed Heading
2026-04-30 03:12 22.30930 113.92641 42 ft 0 kts 296°
2026-04-30 03:30 22.30930 113.92642 42 ft 0 kts 296°
2026-04-30 03:38 22.30923 113.92656 41 ft 4 kts 296°
2026-04-30 03:39 22.30911 113.92682 37 ft 4 kts 296°
2026-04-30 03:39 22.30901 113.92705 38 ft 2 kts 295°
2026-04-30 03:39 22.30895 113.92725 42 ft 4 kts 262°
2026-04-30 03:39 22.30901 113.92743 37 ft 4 kts 221°
2026-04-30 03:40 22.30921 113.92757 39 ft 3 kts 206°
2026-04-30 03:40 22.30946 113.92770 39 ft 4 kts 206°
2026-04-30 03:40 22.30970 113.92783 40 ft 4 kts 206°
2026-04-30 03:40 22.30983 113.92789 38 ft 1 kts 206°
2026-04-30 03:41 22.30983 113.92790 38 ft 6 kts 206°
2026-04-30 03:42 22.30974 113.92785 37 ft 6 kts 206°
2026-04-30 03:42 22.30911 113.92752 39 ft 11 kts 206°
2026-04-30 03:42 22.30845 113.92707 42 ft 12 kts 232°
2026-04-30 03:43 22.30813 113.92626 42 ft 12 kts 250°
2026-04-30 03:43 22.30786 113.92541 42 ft 12 kts 251°
2026-04-30 03:43 22.30759 113.92457 42 ft 12 kts 250°
2026-04-30 03:43 22.30739 113.92381 42 ft 10 kts 273°
2026-04-30 03:44 22.30794 113.92331 42 ft 14 kts 338°
2026-04-30 03:44 22.30942 113.92275 42 ft 28 kts 341°
2026-04-30 03:44 22.31124 113.92206 42 ft 28 kts 341°
2026-04-30 03:44 22.31305 113.92138 42 ft 28 kts 341°
2026-04-30 03:45 22.31484 113.92071 42 ft 21 kts 341°
2026-04-30 03:45 22.31578 113.92036 42 ft 10 kts 341°
2026-04-30 03:45 22.31611 113.91982 41 ft 10 kts 266°
2026-04-30 03:45 22.31579 113.91867 41 ft 24 kts 251°
2026-04-30 03:46 22.31513 113.91663 42 ft 28 kts 251°
2026-04-30 03:46 22.31449 113.91465 42 ft 28 kts 251°
2026-04-30 03:46 22.31386 113.91267 43 ft 28 kts 251°
2026-04-30 03:46 22.31321 113.91069 42 ft 28 kts 251°
2026-04-30 03:47 22.31257 113.90871 42 ft 28 kts 251°
2026-04-30 03:47 22.31194 113.90672 42 ft 28 kts 251°
2026-04-30 03:47 22.31129 113.90474 41 ft 28 kts 250°
2026-04-30 03:47 22.31065 113.90276 41 ft 28 kts 251°
2026-04-30 03:48 22.31001 113.90078 42 ft 28 kts 251°
2026-04-30 03:48 22.30944 113.89899 42 ft 16 kts 250°
2026-04-30 03:48 22.30937 113.89823 42 ft 10 kts 299°
2026-04-30 03:48 22.30996 113.89786 42 ft 10 kts 342°
2026-04-30 03:49 22.31062 113.89765 41 ft 10 kts 354°
2026-04-30 03:49 22.31100 113.89815 41 ft 9 kts 70°
2026-04-30 03:49 22.31136 113.89924 42 ft 30 kts 71°
2026-04-30 03:49 22.31276 113.90359 40 ft 101 kts 71°
2026-04-30 03:50 22.31592 113.91330 43 ft 169 kts 71°
2026-04-30 03:50 22.32001 113.92609 583 ft 184 kts 68°
2026-04-30 03:50 22.32438 113.93878 1614 ft 179 kts 65°
2026-04-30 03:50 22.32885 113.95216 2134 ft 197 kts 68°
2026-04-30 03:51 22.33331 113.96656 2713 ft 206 kts 67°
2026-04-30 03:51 22.34031 113.97997 3301 ft 208 kts 51°
2026-04-30 03:51 22.34905 113.99311 3828 ft 223 kts 53°
2026-04-30 03:51 22.35803 114.00713 4488 ft 230 kts 54°
2026-04-30 03:52 22.36725 114.02168 5115 ft 239 kts 54°
2026-04-30 03:52 22.37663 114.03653 5839 ft 244 kts 54°
2026-04-30 03:52 22.38614 114.05164 6629 ft 241 kts 54°
2026-04-30 03:52 22.39565 114.06684 7250 ft 248 kts 57°
2026-04-30 03:53 22.40128 114.08463 7675 ft 258 kts 91°
2026-04-30 03:53 22.39729 114.10426 7924 ft 280 kts 114°
2026-04-30 03:53 22.38899 114.12415 8355 ft 297 kts 116°
2026-04-30 03:53 22.38029 114.14476 9070 ft 305 kts 116°
2026-04-30 03:54 22.37146 114.16586 9885 ft 311 kts 116°
2026-04-30 03:54 22.36262 114.18738 10558 ft 320 kts 115°
2026-04-30 03:54 22.35336 114.21012 10773 ft 346 kts 115°
2026-04-30 03:54 22.34380 114.23372 10946 ft 371 kts 115°
2026-04-30 03:55 22.33218 114.25888 11218 ft 382 kts 128°
2026-04-30 03:55 22.31306 114.27887 11738 ft 386 kts 150°
2026-04-30 03:55 22.28910 114.29152 12304 ft 386 kts 160°
2026-04-30 03:55 22.26416 114.30305 13031 ft 391 kts 160°
2026-04-30 03:56 22.23932 114.31519 13874 ft 394 kts 156°
2026-04-30 03:56 22.21567 114.33081 14517 ft 402 kts 148°
2026-04-30 03:56 22.19315 114.34911 15208 ft 407 kts 145°
2026-04-30 03:56 22.17081 114.36802 15914 ft 411 kts 145°
2026-04-30 03:57 22.14985 114.38550 16593 ft 413 kts 146°
2026-04-30 03:57 22.12682 114.40415 17339 ft 416 kts 147°
2026-04-30 03:57 22.10317 114.42289 18104 ft 418 kts 147°
2026-04-30 03:57 22.08070 114.44056 18754 ft 421 kts 147°
2026-04-30 03:58 22.05697 114.45921 19408 ft 423 kts 147°
2026-04-30 03:58 22.03310 114.47800 20077 ft 425 kts 147°
2026-04-30 03:58 22.00932 114.49674 20667 ft 424 kts 147°
2026-04-30 03:58 21.98571 114.51583 20737 ft 424 kts 141°
2026-04-30 03:59 21.96666 114.54033 20762 ft 433 kts 123°
2026-04-30 03:59 21.95539 114.57047 20751 ft 434 kts 105°
2026-04-30 03:59 21.94893 114.60229 20763 ft 436 kts 103°
2026-04-30 03:59 21.94263 114.63420 20754 ft 438 kts 103°
2026-04-30 04:00 21.93616 114.66632 20754 ft 439 kts 104°
2026-04-30 04:00 21.92954 114.69834 20749 ft 439 kts 104°
2026-04-30 04:00 21.92276 114.73046 20745 ft 439 kts 104°
2026-04-30 04:00 21.91591 114.76250 20742 ft 438 kts 104°
2026-04-30 04:01 21.90906 114.79437 20744 ft 437 kts 104°
2026-04-30 04:01 21.90219 114.82628 20746 ft 436 kts 104°
2026-04-30 04:01 21.89536 114.85803 20743 ft 436 kts 104°
2026-04-30 04:01 21.88851 114.88981 20743 ft 435 kts 104°
2026-04-30 04:02 21.88278 114.92177 20728 ft 434 kts 96°
2026-04-30 04:02 21.88255 114.95419 20755 ft 434 kts 88°
2026-04-30 04:02 21.88419 114.98672 20751 ft 435 kts 87°
2026-04-30 04:02 21.88607 115.01929 20749 ft 435 kts 87°
2026-04-30 04:03 21.88773 115.05183 20774 ft 439 kts 89°
2026-04-30 04:03 21.88910 115.08497 20744 ft 445 kts 89°
2026-04-30 04:03 21.89021 115.11696 20733 ft 446 kts 90°
2026-04-30 04:03 21.89125 115.15028 20728 ft 445 kts 90°
2026-04-30 04:04 21.89225 115.18354 20715 ft 444 kts 90°
2026-04-30 04:04 21.89325 115.21675 20731 ft 443 kts 90°
2026-04-30 04:04 21.89426 115.24985 20726 ft 443 kts 90°
2026-04-30 04:04 21.89527 115.28306 20722 ft 442 kts 90°
2026-04-30 04:05 21.89625 115.31576 20728 ft 442 kts 90°
2026-04-30 04:05 21.89724 115.34883 20725 ft 442 kts 90°
2026-04-30 04:05 21.89823 115.38195 20720 ft 442 kts 90°
2026-04-30 04:05 21.89921 115.41504 20724 ft 442 kts 90°
2026-04-30 04:06 21.90017 115.44799 20723 ft 442 kts 90°
2026-04-30 04:06 21.90114 115.48126 20723 ft 443 kts 90°
2026-04-30 04:06 21.90211 115.51441 20723 ft 443 kts 90°
2026-04-30 04:06 21.90306 115.54740 20719 ft 443 kts 90°
2026-04-30 04:07 21.90401 115.58069 20723 ft 443 kts 90°
2026-04-30 04:07 21.90526 115.61385 20724 ft 444 kts 87°
2026-04-30 04:07 21.90906 115.64684 20719 ft 445 kts 80°
2026-04-30 04:08 21.92237 115.71185 20691 ft 444 kts 77°
2026-04-30 04:08 21.92918 115.74400 20717 ft 439 kts 77°
2026-04-30 04:08 21.93799 115.77509 20714 ft 435 kts 62°
2026-04-30 04:08 21.95601 115.80118 20746 ft 436 kts 40°
2026-04-30 04:09 21.98081 115.81969 20740 ft 434 kts 24°
2026-04-30 04:09 22.00826 115.83305 20745 ft 433 kts 20°
2026-04-30 04:09 22.03604 115.84586 20741 ft 434 kts 20°
2026-04-30 04:09 22.06377 115.85855 20723 ft 430 kts 20°
2026-04-30 04:10 22.09079 115.87097 20728 ft 427 kts 20°
2026-04-30 04:10 22.11808 115.88361 20749 ft 427 kts 20°
2026-04-30 04:10 22.14538 115.89636 20735 ft 428 kts 20°
2026-04-30 04:10 22.17277 115.90923 20741 ft 429 kts 20°
2026-04-30 04:11 22.20008 115.92212 20743 ft 429 kts 21°
2026-04-30 04:11 22.22747 115.93508 20744 ft 429 kts 21°
2026-04-30 04:11 22.25485 115.94804 20742 ft 430 kts 21°
2026-04-30 04:11 22.28234 115.96107 20756 ft 434 kts 21°
2026-04-30 04:12 22.31002 115.97420 20754 ft 434 kts 21°
2026-04-30 04:12 22.33754 115.98726 20735 ft 430 kts 21°
2026-04-30 04:12 22.36488 116.00023 20736 ft 427 kts 21°
2026-04-30 04:12 22.39205 116.01312 20748 ft 427 kts 21°
2026-04-30 04:13 22.41931 116.02604 20753 ft 427 kts 20°
2026-04-30 04:13 22.44658 116.03898 20756 ft 428 kts 20°
2026-04-30 04:13 22.47390 116.05195 20749 ft 429 kts 21°
2026-04-30 04:13 22.50124 116.06494 20755 ft 429 kts 21°
2026-04-30 04:14 22.52857 116.07794 20753 ft 430 kts 21°
2026-04-30 04:14 22.55596 116.09097 20748 ft 430 kts 20°
2026-04-30 04:14 22.58301 116.10385 20754 ft 430 kts 20°
2026-04-30 04:14 22.61043 116.11690 20751 ft 432 kts 20°
2026-04-30 04:15 22.63795 116.13000 20758 ft 433 kts 20°
2026-04-30 04:15 22.66555 116.14314 20758 ft 433 kts 20°
2026-04-30 04:15 22.69317 116.15634 20756 ft 433 kts 21°
2026-04-30 04:15 22.71998 116.17135 20755 ft 435 kts 27°
2026-04-30 04:16 22.74521 116.18943 20757 ft 436 kts 34°
2026-04-30 04:16 22.76927 116.20944 20762 ft 435 kts 35°
2026-04-30 04:16 22.79311 116.22960 20760 ft 435 kts 35°
2026-04-30 04:16 22.81691 116.24970 20755 ft 434 kts 35°
2026-04-30 04:17 22.84085 116.26978 20760 ft 434 kts 35°
2026-04-30 04:17 22.86473 116.28968 20755 ft 434 kts 35°
2026-04-30 04:17 22.88869 116.30959 20758 ft 434 kts 35°
2026-04-30 04:17 22.91265 116.32949 20763 ft 434 kts 35°
2026-04-30 04:18 22.93662 116.34940 20764 ft 434 kts 35°
2026-04-30 04:18 22.96057 116.36929 20768 ft 434 kts 34°
2026-04-30 04:18 22.98433 116.38892 20763 ft 435 kts 34°
2026-04-30 04:18 23.00845 116.40881 20764 ft 435 kts 34°
2026-04-30 04:19 23.03253 116.42866 20769 ft 435 kts 34°
2026-04-30 04:19 23.05650 116.44844 20733 ft 430 kts 34°
2026-04-30 04:19 23.08007 116.46795 20683 ft 420 kts 34°
2026-04-30 04:19 23.10304 116.48697 20594 ft 410 kts 34°
2026-04-30 04:20 23.12548 116.50556 20465 ft 402 kts 34°
2026-04-30 04:20 23.14755 116.52383 20282 ft 397 kts 34°
2026-04-30 04:20 23.16945 116.54196 19982 ft 395 kts 34°
2026-04-30 04:20 23.19133 116.56006 19658 ft 395 kts 34°
2026-04-30 04:21 23.21314 116.57813 19357 ft 393 kts 34°
2026-04-30 04:21 23.23488 116.59615 19087 ft 392 kts 34°
2026-04-30 04:21 23.25649 116.61408 18815 ft 390 kts 34°
2026-04-30 04:21 23.27801 116.63194 18557 ft 388 kts 34°
2026-04-30 04:22 23.29939 116.64970 18286 ft 386 kts 34°
2026-04-30 04:22 23.32072 116.66741 18021 ft 385 kts 34°
2026-04-30 04:22 23.34169 116.68484 17714 ft 383 kts 34°
2026-04-30 04:22 23.36283 116.70242 17419 ft 382 kts 34°
2026-04-30 04:23 23.38389 116.71994 17127 ft 380 kts 34°
2026-04-30 04:23 23.40485 116.73738 16860 ft 378 kts 34°
2026-04-30 04:23 23.42558 116.75464 16804 ft 373 kts 34°
2026-04-30 04:23 23.44562 116.77265 16769 ft 375 kts 40°
2026-04-30 04:24 23.46415 116.79298 16783 ft 380 kts 43°
2026-04-30 04:24 23.48253 116.81395 16777 ft 384 kts 44°
2026-04-30 04:24 23.50088 116.83503 16767 ft 383 kts 44°
2026-04-30 04:24 23.51924 116.85610 16766 ft 383 kts 44°
2026-04-30 04:25 23.53757 116.87707 16764 ft 382 kts 44°
2026-04-30 04:25 23.55586 116.89792 16771 ft 381 kts 44°
2026-04-30 04:25 23.57421 116.91881 16765 ft 381 kts 44°
2026-04-30 04:25 23.59253 116.93964 16765 ft 381 kts 44°
2026-04-30 04:26 23.61072 116.96032 16764 ft 380 kts 44°
2026-04-30 04:26 23.62903 116.98115 16764 ft 380 kts 44°
2026-04-30 04:26 23.64729 117.00192 16770 ft 380 kts 44°
2026-04-30 04:26 23.66556 117.02272 16768 ft 380 kts 44°
2026-04-30 04:27 23.68383 117.04352 16672 ft 378 kts 44°
2026-04-30 04:27 23.70196 117.06419 16393 ft 377 kts 44°
2026-04-30 04:27 23.71396 117.07786 16149 ft 377 kts 44°
2026-04-30 04:27 23.73211 117.09856 15787 ft 377 kts 44°
2026-04-30 04:28 23.75612 117.12593 15398 ft 375 kts 44°
2026-04-30 04:28 23.77453 117.14599 15120 ft 373 kts 40°
2026-04-30 04:28 23.79364 117.16504 14832 ft 371 kts 39°
2026-04-30 04:28 23.81290 117.18361 14587 ft 370 kts 39°
2026-04-30 04:29 23.83213 117.20208 14355 ft 368 kts 38°
2026-04-30 04:29 23.85135 117.22058 14099 ft 367 kts 39°
2026-04-30 04:29 23.86426 117.23307 13923 ft 366 kts 39°
2026-04-30 04:29 23.88318 117.25143 13640 ft 362 kts 39°
2026-04-30 04:30 23.90796 117.27559 13218 ft 361 kts 39°
2026-04-30 04:30 23.92063 117.28795 13024 ft 360 kts 39°
2026-04-30 04:30 23.93931 117.30620 12740 ft 360 kts 39°
2026-04-30 04:30 23.95766 117.32415 12500 ft 357 kts 39°
2026-04-30 04:31 23.97611 117.34223 12259 ft 355 kts 40°
2026-04-30 04:31 23.99446 117.36022 12006 ft 353 kts 39°
2026-04-30 04:31 24.01268 117.37806 11938 ft 349 kts 39°
2026-04-30 04:31 24.03050 117.39553 11873 ft 340 kts 39°
2026-04-30 04:32 24.04787 117.41258 11864 ft 332 kts 39°
2026-04-30 04:32 24.06498 117.42936 11723 ft 331 kts 39°
2026-04-30 04:32 24.08213 117.44611 11484 ft 329 kts 39°
2026-04-30 04:32 24.09904 117.46276 11284 ft 325 kts 39°
2026-04-30 04:33 24.11584 117.47926 10947 ft 324 kts 39°
2026-04-30 04:33 24.13268 117.49577 10630 ft 324 kts 40°
2026-04-30 04:33 24.14890 117.51281 10314 ft 324 kts 44°
2026-04-30 04:33 24.16420 117.53092 10058 ft 322 kts 46°
2026-04-30 04:34 24.17910 117.54911 9755 ft 320 kts 46°
2026-04-30 04:34 24.19393 117.56719 9452 ft 317 kts 46°
2026-04-30 04:34 24.20866 117.58509 9120 ft 316 kts 46°
2026-04-30 04:34 24.22339 117.60291 8819 ft 314 kts 46°
2026-04-30 04:35 24.23800 117.62050 8528 ft 310 kts 46°
2026-04-30 04:35 24.25237 117.63778 8302 ft 304 kts 46°
2026-04-30 04:35 24.26660 117.65486 8004 ft 303 kts 46°
2026-04-30 04:35 24.28077 117.67187 7679 ft 302 kts 46°
2026-04-30 04:36 24.29489 117.68882 7382 ft 301 kts 46°
2026-04-30 04:36 24.30899 117.70574 7061 ft 300 kts 46°
2026-04-30 04:36 24.32300 117.72257 6908 ft 295 kts 46°
2026-04-30 04:36 24.33680 117.73918 6907 ft 297 kts 46°
2026-04-30 04:37 24.35055 117.75572 6850 ft 289 kts 46°
2026-04-30 04:37 24.36385 117.77168 6763 ft 278 kts 46°
2026-04-30 04:37 24.37664 117.78705 6670 ft 268 kts 46°
2026-04-30 04:37 24.38900 117.80192 6520 ft 260 kts 48°
2026-04-30 04:38 24.39797 117.81860 6100 ft 257 kts 80°
2026-04-30 04:38 24.39979 117.83765 5783 ft 250 kts 88°
2026-04-30 04:38 24.40114 117.85643 5542 ft 247 kts 88°
2026-04-30 04:38 24.40253 117.87482 5386 ft 233 kts 88°
2026-04-30 04:39 24.40384 117.89185 5216 ft 216 kts 88°
2026-04-30 04:39 24.40505 117.90789 4862 ft 209 kts 88°
2026-04-30 04:39 24.40624 117.92375 4401 ft 207 kts 86°
2026-04-30 04:39 24.41084 117.93853 4044 ft 207 kts 58°
2026-04-30 04:40 24.41893 117.95144 3800 ft 205 kts 55°
2026-04-30 04:40 24.42733 117.96380 3522 ft 204 kts 53°
2026-04-30 04:40 24.43600 117.97606 3256 ft 201 kts 53°
2026-04-30 04:40 24.44454 117.98803 2988 ft 197 kts 53°
2026-04-30 04:41 24.45289 117.99974 2773 ft 192 kts 53°
2026-04-30 04:41 24.46103 118.01114 2502 ft 189 kts 53°
2026-04-30 04:41 24.46907 118.02239 2249 ft 186 kts 53°
2026-04-30 04:41 24.47698 118.03349 2017 ft 182 kts 52°
2026-04-30 04:42 24.48455 118.04411 1775 ft 172 kts 53°
2026-04-30 04:42 24.49158 118.05396 1539 ft 155 kts 53°
2026-04-30 04:42 24.49792 118.06287 1356 ft 147 kts 53°
2026-04-30 04:42 24.50416 118.07161 1157 ft 145 kts 53°
2026-04-30 04:43 24.51036 118.08026 906 ft 143 kts 52°
2026-04-30 04:43 24.51641 118.08884 697 ft 141 kts 53°
2026-04-30 04:43 24.52237 118.09724 475 ft 141 kts 52°
2026-04-30 04:43 24.52846 118.10570 333 ft 145 kts 52°
2026-04-30 04:44 24.53467 118.11446 124 ft 144 kts 51°
2026-04-30 04:44 24.54057 118.12268 54 ft 123 kts 52°
2026-04-30 04:44 24.54471 118.12851 51 ft 70 kts 52°
2026-04-30 04:44 24.54675 118.13147 52 ft 38 kts 66°
2026-04-30 04:45 24.54720 118.13390 49 ft 30 kts 82°
2026-04-30 04:45 24.54797 118.13592 48 ft 24 kts 49°
2026-04-30 04:45 24.54867 118.13692 48 ft 10 kts 54°
2026-04-30 04:45 24.54845 118.13753 49 ft 10 kts 153°
2026-04-30 04:46 24.54791 118.13718 46 ft 10 kts 238°
2026-04-30 04:46 24.54749 118.13655 49 ft 10 kts 233°
2026-04-30 04:46 24.54705 118.13593 47 ft 10 kts 232°
2026-04-30 04:46 24.54662 118.13530 47 ft 10 kts 232°
2026-04-30 04:47 24.54626 118.13483 51 ft 5 kts 217°
2026-04-30 04:47 24.54591 118.13494 48 ft 6 kts 145°
2026-04-30 04:47 24.54551 118.13495 50 ft 7 kts 211°
2026-04-30 04:47 24.54517 118.13459 50 ft 7 kts 230°
2026-04-30 04:48 24.54483 118.13423 49 ft 7 kts 200°
2026-04-30 04:48 24.54442 118.13439 52 ft 5 kts 147°
2026-04-30 04:48 24.54426 118.13452 52 ft 2 kts 142°
2026-04-30 04:48 24.54423 118.13455 51 ft 0 kts 143°